Lyndonville, VT

11:34 PM EDT on October 21, 2017 (GMT -0400)
Lyndonville

Weather History for KCDA - February, 2013

Change the Weather History Date:

Sunday, February 17, 2013

  Actual Average (K1V4) Record (K1V4)
Temperature  
Mean Temperature 11 °F -  
Max Temperature 15 °F 29 °F 57 °F (1981)
Min Temperature 7 °F 7 °F -30 °F (1934)
Degree Days  
Heating Degree Days 54    
Moisture  
Dew Point 1 °F    
Average Humidity 63    
Maximum Humidity 74    
Minimum Humidity 54    
Precipitation  
Precipitation 0.00 in - - ()
Sea Level Pressure  
Sea Level Pressure 29.64 in    
Wind  
Wind Speed 11 mph (SW)    
Max Wind Speed 23 mph    
Max Gust Speed 32 mph    
Visibility 8 miles    
Events Snow    
Averages and records for this station are not official NWS values.
T = Trace of Precipitation, MM = Missing Value Source: NWS Daily Summary

Daily Weather History Graph

Daily Weather History Graph

Search for Another Location

Airport or City:

Trip Planner

Search our weather history database for the weather conditions in past years. The results will help you decide how hot, cold, wet, or windy it might be!

Date:

Astronomy

Feb. 17, 2013 Rise Set
Actual Time 6:44 AM EST 5:19 PM EST
Civil Twilight 6:15 AM EST 5:49 PM EST
Nautical Twilight 5:41 AM EST 6:23 PM EST
Astronomical Twilight 5:07 AM EST 6:57 PM EST
Moon 10:16 AM EST (2/17) 12:31 AM EST (2/17)
Length of Visible Light 11h 34m
Length of Day
10h 35m
Waxing Crescent, 49% of the Moon is Illuminated
Feb 17
Waxing Crescent
Feb 17
First Quarter
Feb 25
Full
Mar 4
Last Quarter
Mar 11
New

Hourly Weather History & Observations

Time (EST) Temp. Windchill Dew Point Humidity Pressure Visibility Wind Dir Wind Speed Gust Speed Precip Events Conditions
12:15 AM 15.1 °F 5.2 °F 2.3 °F 57% 29.82 in 10.0 mi WSW 6.9 mph - N/A   Unknown
12:35 AM 14.5 °F 5.7 °F 2.7 °F 59% 29.81 in 10.0 mi West 5.8 mph - N/A   Unknown
12:55 AM 14.5 °F 4.6 °F 2.8 °F 60% 29.81 in 10.0 mi WSW 6.9 mph - N/A   Unknown
1:15 AM 14.4 °F 4.3 °F 3.4 °F 62% 29.79 in 10.0 mi West 6.9 mph - N/A   Unknown
1:35 AM 14.0 °F 1.2 °F 3.6 °F 63% 29.79 in 10.0 mi SW 10.4 mph - N/A   Unknown
1:55 AM 13.8 °F 3.7 °F 3.0 °F 62% 29.76 in 10.0 mi SW 6.9 mph - N/A   Unknown
2:15 AM 13.1 °F 4.0 °F 3.2 °F 65% 29.76 in 10.0 mi SW 5.8 mph - N/A   Unknown
2:35 AM 13.1 °F 7.1 °F 3.0 °F 64% 29.76 in 10.0 mi SW 3.5 mph - N/A   Unknown
2:55 AM 13.1 °F 0.9 °F 3.0 °F 64% 29.76 in 10.0 mi SW 9.2 mph - N/A   Unknown
3:15 AM 13.1 °F 0.9 °F 3.2 °F 65% 29.75 in 10.0 mi SW 9.2 mph - N/A   Unknown
3:35 AM 12.7 °F -1.8 °F 3.2 °F 66% 29.75 in 10.0 mi SW 12.7 mph - N/A   Unknown
3:55 AM 12.2 °F -1.8 °F 2.8 °F 66% 29.74 in 10.0 mi SW 11.5 mph 18.4 mph N/A   Unknown
4:15 AM 12.2 °F -2.5 °F 3.2 °F 67% 29.73 in 10.0 mi SW 12.7 mph - N/A   Unknown
4:35 AM 12.2 °F -3.1 °F 3.6 °F 68% 29.73 in 10.0 mi SW 13.8 mph 18.4 mph N/A   Unknown
4:55 AM 11.8 °F 0.3 °F 3.7 °F 70% 29.72 in 10.0 mi SW 8.1 mph - N/A   Unknown
5:15 AM 11.7 °F -1.7 °F 3.7 °F 71% 29.72 in 10.0 mi SW 10.4 mph - N/A   Unknown
5:35 AM 11.3 °F -1.3 °F 3.7 °F 72% 29.71 in 7.0 mi SW 9.2 mph - N/A Snow Light Snow
5:55 AM 11.1 °F -2.4 °F 3.9 °F 73% 29.68 in 5.0 mi SW 10.4 mph - N/A Snow Light Snow
6:15 AM 11.1 °F -0.6 °F 3.7 °F 72% 29.71 in 5.0 mi SW 8.1 mph - N/A Snow Light Snow
6:35 AM 11.1 °F 0.4 °F 3.9 °F 73% 29.69 in 4.0 mi SW 6.9 mph - N/A Snow Light Snow
6:55 AM 10.9 °F -2.6 °F 3.7 °F 73% 29.68 in 4.0 mi SW 10.4 mph - N/A Snow Light Snow
7:15 AM 10.6 °F -3.1 °F 3.6 °F 73% 29.68 in 4.0 mi SW 10.4 mph - N/A Snow Light Snow
7:35 AM 10.4 °F -3.3 °F 3.6 °F 74% 29.67 in 2.5 mi SW 10.4 mph - N/A Snow Light Snow
7:55 AM 10.0 °F -2.9 °F 3.0 °F 73% 29.66 in 2.0 mi SW 9.2 mph - N/A Snow Light Snow
8:15 AM 10.0 °F -5.2 °F 2.8 °F 73% 29.65 in 5.0 mi SW 12.7 mph 18.4 mph N/A   Haze
8:35 AM 10.2 °F -2.7 °F 2.3 °F 70% 29.64 in 7.0 mi SW 9.2 mph - N/A   Unknown
8:55 AM 10.8 °F -3.6 °F 1.8 °F 67% 29.62 in 10.0 mi SW 11.5 mph 16.1 mph N/A   Unknown
9:15 AM 11.3 °F -1.3 °F 0.9 °F 63% 29.62 in 10.0 mi SW 9.2 mph 19.6 mph N/A   Unknown
9:35 AM 11.1 °F -5.1 °F -0.0 °F 61% 29.61 in 10.0 mi SW 15.0 mph 18.4 mph N/A   Unknown
9:55 AM 10.8 °F -4.3 °F -0.0 °F 62% 29.59 in 10.0 mi SW 12.7 mph 20.7 mph N/A   Unknown
10:15 AM 10.9 °F -2.6 °F -0.2 °F 61% 29.59 in 10.0 mi SW 10.4 mph 19.6 mph N/A   Unknown
10:35 AM 10.9 °F -5.9 °F -0.4 °F 60% 29.57 in 10.0 mi SW 16.1 mph 25.3 mph N/A   Unknown
10:55 AM 11.1 °F -5.7 °F -1.1 °F 58% 29.57 in 10.0 mi SW 16.1 mph 25.3 mph N/A   Unknown
11:15 AM 10.9 °F -4.7 °F -1.5 °F 57% 29.57 in 10.0 mi SW 13.8 mph 26.5 mph N/A   Unknown
11:35 AM 11.1 °F -7.2 °F -1.1 °F 58% 29.56 in 10.0 mi SW 19.6 mph 27.6 mph N/A   Unknown
11:55 AM 11.1 °F -5.1 °F -1.7 °F 57% 29.55 in 10.0 mi SW 15.0 mph 24.2 mph N/A   Unknown
12:15 PM 11.1 °F -5.7 °F -1.7 °F 57% 29.55 in 10.0 mi SW 16.1 mph 28.8 mph N/A   Unknown
12:35 PM 11.3 °F -4.3 °F -1.3 °F 57% 29.55 in 10.0 mi SW 13.8 mph 21.9 mph N/A   Unknown
12:55 PM 11.7 °F -5.0 °F -0.8 °F 58% 29.54 in 10.0 mi SW 16.1 mph 23.0 mph N/A   Unknown
1:15 PM 11.1 °F -3.9 °F -0.8 °F 59% 29.54 in 10.0 mi SW 12.7 mph 25.3 mph N/A   Unknown
1:35 PM 11.3 °F -4.9 °F -1.3 °F 57% 29.54 in 10.0 mi SW 15.0 mph 21.9 mph N/A   Unknown
1:55 PM 10.6 °F -9.2 °F -2.2 °F 56% 29.53 in 10.0 mi SW 23.0 mph 31.1 mph N/A   Unknown
2:15 PM 10.9 °F -6.5 °F -1.7 °F 57% 29.53 in 10.0 mi SW 17.3 mph 25.3 mph N/A   Unknown
2:35 PM 10.9 °F -5.4 °F -2.0 °F 56% 29.52 in 10.0 mi SW 15.0 mph 31.1 mph N/A   Unknown
2:55 PM 11.3 °F -7.4 °F -2.4 °F 54% 29.52 in 10.0 mi SW 20.7 mph 32.2 mph N/A   Unknown
3:15 PM 11.5 °F -6.3 °F -2.4 °F 54% 29.52 in 10.0 mi SW 18.4 mph 25.3 mph N/A   Unknown
3:35 PM 11.1 °F -5.7 °F -1.7 °F 57% 29.52 in 10.0 mi SW 16.1 mph 26.5 mph N/A   Unknown
3:55 PM 10.6 °F -8.4 °F -1.3 °F 59% 29.52 in 10.0 mi SW 20.7 mph 25.3 mph N/A   Unknown
4:15 PM 10.0 °F -7.1 °F -1.1 °F 61% 29.54 in 10.0 mi SW 16.1 mph 24.2 mph N/A   Unknown
4:35 PM 10.0 °F -7.6 °F -1.3 °F 60% 29.54 in 10.0 mi SW 17.3 mph 24.2 mph N/A   Unknown
4:55 PM 10.2 °F -4.3 °F -1.5 °F 59% 29.55 in 10.0 mi SW 11.5 mph 17.3 mph N/A   Unknown
5:15 PM 10.4 °F -8.2 °F -1.3 °F 59% 29.55 in 10.0 mi SW 19.6 mph 26.5 mph N/A   Unknown
5:35 PM 10.9 °F -5.9 °F -0.8 °F 59% 29.56 in 10.0 mi SW 16.1 mph 25.3 mph N/A   Unknown
5:55 PM 10.9 °F -4.1 °F -0.8 °F 59% 29.57 in 10.0 mi SW 12.7 mph 32.2 mph N/A   Unknown
6:15 PM 10.9 °F -5.9 °F -0.4 °F 60% 29.58 in 10.0 mi SW 16.1 mph 26.5 mph N/A   Unknown
6:35 PM 10.9 °F -7.5 °F -0.4 °F 60% 29.58 in 10.0 mi SW 19.6 mph 27.6 mph N/A   Unknown
6:55 PM 10.8 °F -7.7 °F -0.6 °F 60% 29.58 in 10.0 mi SW 19.6 mph 27.6 mph N/A   Unknown
7:15 PM 10.4 °F -8.6 °F -1.1 °F 60% 29.58 in 10.0 mi SW 20.7 mph 28.8 mph N/A   Unknown
7:55 PM 10.2 °F -8.9 °F -1.1 °F 60% 29.59 in 10.0 mi SW 20.7 mph 32.2 mph N/A   Unknown
8:15 PM 10.0 °F -7.6 °F -1.1 °F 61% 29.60 in 10.0 mi SW 17.3 mph 27.6 mph N/A   Unknown
8:35 PM 10.0 °F -7.6 °F -0.9 °F 61% 29.61 in 10.0 mi SW 17.3 mph 24.2 mph N/A   Unknown
8:55 PM 9.9 °F -7.9 °F -1.1 °F 61% 29.61 in 10.0 mi SW 17.3 mph 25.3 mph N/A   Unknown
9:15 PM 9.5 °F -8.3 °F -0.9 °F 63% 29.62 in 7.0 mi SW 17.3 mph 28.8 mph N/A   Unknown
9:35 PM 9.3 °F -8.0 °F -0.4 °F 65% 29.63 in 5.0 mi SW 16.1 mph 28.8 mph N/A   Haze
9:55 PM 9.1 °F -6.4 °F -0.4 °F 65% 29.64 in 4.0 mi SW 12.7 mph 29.9 mph N/A   Haze
10:15 PM 8.6 °F -11.0 °F -0.4 °F 67% 29.64 in 4.0 mi SW 20.7 mph 28.8 mph N/A   Haze
10:35 PM 8.6 °F -10.0 °F -0.4 °F 67% 29.65 in 4.0 mi SW 18.4 mph 25.3 mph N/A   Haze
10:55 PM 8.2 °F -8.8 °F -0.6 °F 67% 29.66 in 5.0 mi SW 15.0 mph 23.0 mph N/A   Haze
11:15 PM 8.1 °F -5.3 °F -0.4 °F 68% 29.66 in 4.0 mi SW 9.2 mph 19.6 mph N/A   Haze
11:35 PM 7.7 °F -6.6 °F 0.3 °F 72% 29.67 in 3.0 mi SW 10.4 mph - N/A   Haze
11:55 PM 7.5 °F -7.7 °F -0.6 °F 70% 29.68 in 4.0 mi SW 11.5 mph 17.3 mph N/A   Haze